RH
76 82 82 74 71 66 72 74 68 70 67 67 64 71 70 68 65 61 64 60 63 67
81 76 70 74 74 64 62 71 72 71 69 70 67 69 72 69 71 65 65 64 66 66
90 89 78 74 81 74 69 66 76 75 73 72 72 70 74 71 70 70 70 66 65 67
92 87 89 94 89 84 76 72 74 79 76 74 76 73 74 72 71 75 71 69 68 67
88 92 94 87 86 90 84 82 72 78 79 75 77 76 77 76 71 74 76 74 74 71
88 89 92 92 89 88 91 75 72 78 81 81 78 79 78 76 76 74 74 73 76 75
85 88 89 89 92 92 88 91 74 80 79 79 79 79 81 78 79 76 76 75 74 75
81 81 86 89 90 91 93 89 80 80 84 79 78 77 84 84 83 80 78 80 78 76
75 78 83 86 92 89 91 92 94 85 86 87 83 94 100 89 82 80 81 82 82 81
73 77 82 80 87 94 93 92 92 93 94 95 93 100 100 100 83 82 82 84 84 85
79 77 81 80 84 87 94 95 95 93 93 97 96 100 100 100 92 86 85 84 84 85
81 81 80 81 88 88 90 92 95 94 93 95 94 100 100 100 95 91 87 85 86 86
79 83 80 83 85 88 88 86 86 89 92 96 94 100 100 99 97 94 93 89 88 100
80 81 81 86 85 84 87 88 89 90 90 90 94 95 99 99 98 99 96 93 94 94
Wind_Speed
19 15 13 17 15 14 14 17 22 20 19 19 19 16 15 13 13 15 14 18 14 11
11 19 18 18 18 15 17 14 18 20 21 20 19 18 17 14 16 16 16 17 15 13
15 6 14 18 15 18 16 16 17 18 19 19 19 18 18 16 16 17 13 14 16 15
16 8 5 4 9 13 16 17 16 20 21 21 19 19 18 19 18 18 18 16 17 19
16 6 6 11 15 13 18 15 19 18 21 22 21 20 21 21 19 20 20 20 19 21
15 13 12 15 14 12 17 24 20 18 21 23 23 22 22 22 22 21 21 21 20 22
16 15 12 14 13 10 20 21 17 21 21 23 23 23 23 22 20 20 19 21 22 21
15 15 14 12 13 11 10 12 21 22 22 23 23 19 21 20 21 21 22 20 20 21
14 14 14 13 12 14 14 13 12 19 23 20 17 22 24 24 20 22 21 22 20 20
16 15 14 13 12 12 12 10 12 10 12 19 23 18 21 23 20 20 21 21 20 17
15 15 14 14 11 10 10 9 12 12 11 10 15 17 15 19 21 19 21 21 20 20
14 15 14 14 16 16 15 13 11 12 13 9 11 17 16 16 21 21 21 18 19 19
13 13 13 13 13 12 13 13 10 12 13 11 11 16 27 13 16 15 15 19 18 20
12 13 11 11 10 10 10 10 12 12 11 12 12 12 19 21 5 9 9 14 11 11
Wind_Direction
240 218 229 220 210 211 202 201 199 200 202 206 203 199 196 200 204 201 207 211 207 207
313 235 220 226 222 213 213 206 206 199 201 202 203 199 197 203 206 204 205 212 211 213
306 298 240 231 226 225 221 211 204 204 203 203 204 200 200 207 209 209 210 210 210 215
318 276 256 259 292 244 228 216 203 202 201 202 207 205 202 208 208 209 214 212 212 216
343 291 273 261 249 300 250 221 222 203 202 204 203 205 204 208 209 210 210 212 212 218
343 340 348 305 247 216 284 261 224 217 206 202 205 206 209 211 211 213 213 213 214 218
345 337 353 343 332 303 271 273 242 225 218 210 203 210 211 213 215 217 220 218 218 217
342 341 342 354 343 345 316 287 254 240 228 220 212 204 208 212 216 216 221 221 220 221
343 347 348 347 358 340 343 342 326 251 231 227 220 220 198 205 209 213 220 223 222 222
349 343 342 355 1 341 332 335 326 327 316 237 221 214 217 214 212 213 219 221 222 222
344 338 343 345 2 352 334 2 335 330 330 356 254 239 210 221 223 222 222 224 222 223
341 335 345 347 344 350 348 355 351 350 329 331 339 359 265 216 229 225 224 222 221 222
334 337 342 341 337 353 345 349 349 356 351 350 1 355 342 263 247 224 229 230 223 211
337 338 343 337 333 347 346 353 352 360 1 346 2 7 348 346 306 271 255 236 227 228